Regional Weather Roundup
Issued by NWS

Home | Current Version | Previous Version | Graphics & Text | Print | Product List | Glossary On
Versions: 1 2 3 4 5 6 7 8 9 10 11 12 13 14 15 16 17 18 19 20 21 22 23 24 25 26 27 28 29 30 31 32 33 34 35 36 37 38 39 40 41 42 43 44 45 46 47 48 49 50
000
ASUS43 KIND 170359
RWRIN

WEATHER ROUNDUP FOR INDIANA
NATIONAL WEATHER SERVICE INDIANAPOLIS IN
1100 PM EST TUE JAN 16 2018

NOTE: "FAIR" INDICATES FEW OR NO CLOUDS BELOW 12,000 FEET WITH NO
SIGNIFICANT WEATHER AND/OR OBSTRUCTIONS TO VISIBILITY.

* - STATION DOES NOT REPORT WEATHER SUCH AS PRECIPITATION OR FOG.

+ - STATION NOT QUALITY CONTROLLED BY THE NATIONAL WEATHER SERVICE.
    USE DATA WITH CAUTION...ESPECIALLY DEWPOINT AND RELATIVE
    HUMIDITY OBSERVATIONS.

INZ001>003-010>013-019-020-170500-
NORTHWEST INDIANA

CITY           SKY/WX    TMP DP  RH WIND       PRES   REMARKS
KNOX *+        CLOUDY    14  12  92 SW13      30.50S VSB 3/4 WCI   0
MONTICELLO +   MOCLDY     6   2  84 SW7       30.54R WCI  -6

$$

LMZ046-743>745-170500-
SOUTHERN LAKE MICHIGAN

STATION/POSITION TIME  TEMP    WIND        PRES    WAVE
                       AIR SEA DIR/SP/G            HT
                 (UTC) (F)     (DEG/KT/KT) (MB)    (FT)
BURNS HARBOR     0340   24     310/ 15/ 22 1032.8R
MICHIGAN CITY    0330   25     310/ 24/ 28   N/A

$$

INZ004-005-014>016-021>024-170500-
NORTH CENTRAL INDIANA

CITY           SKY/WX    TMP DP  RH WIND       PRES   REMARKS
GOSHEN         CLOUDY     4   1  88 S5        30.48F WCI  -5
PERU/GRISSOM   FLURRIES   7   5  92 W9        30.51S WCI  -7
SOUTH BEND     LGT SNOW  11   8  88 S6        30.48F WCI   1

$$

INZ006>009-017-018-025>027-170500-
NORTHEAST INDIANA

CITY           SKY/WX    TMP DP  RH WIND       PRES   REMARKS
FORT WAYNE     CLOUDY    10   5  80 SW8       30.51S WCI  -2
KENDALLVILLE + FAIR       2   0  90 SW5       30.47F WCI  -7

$$

INZ028-029-035-036-043>045-051>053-170500-
WEST CENTRAL INDIANA

CITY           SKY/WX    TMP DP  RH WIND       PRES   REMARKS
GREENCASTLE +  LGT SNOW   7   3  85 W6        30.58S WCI  -3
LAFAYETTE      FAIR       6   4  91 W6        30.56S WCI  -4
TERRE HAUTE    FLURRIES   7   2  80 W7        30.62F WCI  -5

$$

INZ030>032-037>040-046>048-054>057-064-065-170500-
CENTRAL INDIANA

CITY           SKY/WX    TMP DP  RH WIND       PRES   REMARKS
GREENWOOD *+   CLOUDY     8   2  76 W7        30.58S WCI  -3
INDIANAPOLIS   FLURRIES   7   2  80 SW12      30.57S WCI  -8
-EAGLE CREEK   CLOUDY     7   2  80 SW5       30.56S WCI  -2
MT COMFORT *+  CLOUDY     7   5  92 SW7       30.56S WCI  -5
SHELBYVILLE    CLOUDY     7   0  73 W9        30.57S WCI  -7

$$

INZ033-034-041-042-049-050-058-059-170500-
EAST CENTRAL INDIANA

CITY           SKY/WX    TMP DP  RH WIND       PRES   REMARKS
MUNCIE         CLOUDY     9   2  73 W10       30.52S WCI  -5
RICHMOND +     CLOUDY     5   1  85 W13       30.52R WCI -12

$$

INZ060-061-067>069-081>083-085>088-170500-
SOUTHWEST INDIANA

CITY           SKY/WX    TMP DP  RH WIND       PRES   REMARKS
EVANSVILLE     CLOUDY     7   3  84 NW5       30.67S WCI  -2
HUNTINGBURG +  FLURRIES   5   1  83 CALM      30.65S

$$

INZ062-063-066-070>080-084-089>092-170500-
SOUTH CENTRAL AND SOUTHEAST INDIANA

CITY           SKY/WX    TMP DP  RH WIND       PRES   REMARKS
BLOOMINGTON    CLOUDY     5   0  79 W5        30.59S WCI  -4
FRENCH LICK *+ MOCLDY     5   0  78 CALM      30.61R
MADISON *+     CLOUDY     7   1  78 W3        30.61R
SEYMOUR +      CLOUDY     9   0  66 NW7       30.62S WCI  -3

$$





USA.gov is the U.S. government's official web portal to all federal, state and local government web resources and services.